EW8655 Weather Reports


Display with metric or nautical units.
time (UTC)temp
F
wind
direction
speed
MPH
gust
MPH
rain 1hr
in
rain 24hr
in
rain mn
in
humidity
%
barometer
mb
20260904210507 77 284 5.0 7.0 0.00 0.00 0.00 60 1010.1
20260904210006 77 300 5.0 7.0 0.00 0.00 0.00 60 1010.1
20260904205506 77 297 5.0 7.0 0.00 0.00 0.00 60 1010.1
20260904205007 77 282 5.0 9.0 0.00 0.00 0.00 60 1010.1
20260904204506 77 288 5.0 9.0 0.00 0.00 0.00 60 1010.1
20260904204006 77 283 5.0 9.0 0.00 0.00 0.00 59 1010.1
20260904203006 77 292 7.0 9.0 0.00 0.00 0.00 59 1010.1
20260904202506 77 288 5.0 9.0 0.00 0.00 0.00 59 1010.1
20260904202007 78 288 5.0 7.0 0.00 0.00 0.00 58 1010.1
20260904201507 78 292 5.0 9.0 0.00 0.00 0.00 57 1010.1
20260904201006 79 355 5.0 9.0 0.00 0.00 0.00 57 1010.1
20260904200507 79 293 5.0 9.0 0.00 0.00 0.00 57 1010.1
20260904200006 79 288 3.0 9.0 0.00 0.00 0.00 59 1010.1
20260904195506 79 286 5.0 9.0 0.00 0.00 0.00 59 1010.1
20260904195007 79 308 5.0 9.0 0.00 0.00 0.00 59 1010.1
20260904194507 79 277 4.0 9.0 0.00 0.00 0.00 59 1010.1
20260904194007 80 293 3.0 9.0 0.00 0.00 0.00 59 1010.1
20260904193507 80 304 2.0 9.0 0.00 0.00 0.00 60 1010.1
20260904193007 79 318 2.0 9.0 0.00 0.00 0.00 60 1010.1
20260904192006 79 278 5.0 7.0 0.00 0.00 0.00 60 1010.1
20260904191506 79 320 5.0 7.0 0.00 0.00 0.00 61 1010.1
20260904190506 79 331 2.0 7.0 0.00 0.00 0.00 62 1010.1
20260904190006 79 344 2.0 7.0 0.00 0.00 0.00 63 1010.1
20260904185506 79 344 2.0 9.0 0.00 0.00 0.00 63 1010.1
20260904185006 78 344 3.0 9.0 0.00 0.00 0.00 67 1010.1
20260904184006 77 331 2.0 9.0 0.00 0.00 0.00 68 1010.1
20260904183507 77 311 2.0 9.0 0.00 0.00 0.00 69 1010.1
20260904182506 77 300 5.0 7.0 0.00 0.00 0.00 68 1010.1
20260904182007 78 302 2.0 12.0 0.00 0.00 0.00 67 1010.1
20260904181506 78 313 7.0 12.0 0.00 0.00 0.00 62 1010.1
20260904181006 78 285 7.0 12.0 0.00 0.00 0.00 62 1010.5
20260904180507 77 290 7.0 12.0 0.00 0.00 0.00 62 1010.1
20260904180006 77 282 7.0 12.0 0.00 0.00 0.00 62 1010.2
20260904175506 77 286 9.0 9.0 0.00 0.00 0.00 62 1011.1
20260904175006 78 281 7.0 12.0 0.00 0.00 0.00 63 1011.1
20260904174506 77 280 7.0 12.0 0.00 0.00 0.00 62 1011.1
20260904174006 77 271 7.0 12.0 0.00 0.00 0.00 63 1011.1
20260904173506 77 287 7.0 12.0 0.00 0.00 0.00 64 1011.1
20260904173006 77 264 7.0 12.0 0.00 0.00 0.00 63 1011.1
20260904172506 77 267 9.0 14.0 0.00 0.00 0.00 63 1011.6
20260904172006 77 284 9.0 14.0 0.00 0.00 0.00 63 1011.1
20260904171006 77 269 7.0 12.0 0.00 0.00 0.00 64 1012.1
20260904170506 77 258 9.0 12.0 0.00 0.00 0.00 64 1012.1
20260904170006 77 263 7.0 9.0 0.00 0.00 0.00 65 1012.1
20260904165506 77 276 5.0 9.0 0.00 0.00 0.00 67 1012.1
20260904165007 77 16 3.0 7.0 0.00 0.00 0.00 69 1012.1
20260904164505 77 359 2.0 7.0 0.00 0.00 0.00 69 1012.1
20260904164006 76 24 2.0 5.0 0.00 0.00 0.00 71 1012.1
20260904163006 75 329 2.0 5.0 0.00 0.00 0.00 70 1012.1
20260904162506 76 57 0.0 5.0 0.00 0.00 0.00 71 1012.1
20260904162007 75 318 2.0 7.0 0.00 0.00 0.00 70 1012.1
20260904161006 75 15 2.0 7.0 0.00 0.00 0.00 69 1012.1
20260904160006 75 14 2.0 5.0 0.00 0.00 0.00 69 1012.1
20260904155506 75 343 2.0 5.0 0.00 0.00 0.00 68 1012.1
20260904155006 75 13 2.0 5.0 0.00 0.00 0.00 69 1012.1
20260904154506 75 43 2.0 5.0 0.00 0.00 0.00 69 1012.1
20260904153506 75 13 0.0 7.0 0.00 0.00 0.00 71 1012.1
20260904152506 75 320 2.0 5.0 0.00 0.00 0.00 72 1012.1
20260904152006 74 6 2.0 9.0 0.00 0.00 0.00 73 1012.1
20260904151505 74 324 4.0 9.0 0.00 0.00 0.00 73 1012.1
20260904151006 74 12 2.0 9.0 0.00 0.00 0.00 73 1012.1
20260904150007 74 11 2.0 5.0 0.00 0.00 0.00 73 1012.1
20260904145507 74 353 5.0 5.0 0.00 0.00 0.00 74 1012.1
20260904145007 74 346 2.0 5.0 0.00 0.00 0.00 75 1012.1
20260904143506 73 39 2.0 5.0 0.00 0.00 0.00 79 1012.1
20260904143006 73 351 2.0 5.0 0.00 0.00 0.00 80 1012.1
20260904142505 73 50 2.0 7.0 0.00 0.00 0.00 81 1012.1
20260904142006 73 337 2.0 7.0 0.00 0.00 0.00 81 1012.1
20260904141506 73 336 2.0 5.0 0.00 0.00 0.00 81 1012.1
20260904140506 73 17 2.0 5.0 0.00 0.00 0.00 80 1012.1
20260904140006 73 4 2.0 5.0 0.00 0.00 0.00 82 1012.1
20260904135506 73 273 0.0 5.0 0.00 0.00 0.00 83 1012.1
20260904135006 72 329 1.0 5.0 0.00 0.00 0.00 85 1012.1
20260904134506 71 305 2.0 5.0 0.00 0.00 0.00 85 1012.1
20260904134006 71 277 3.0 5.0 0.00 0.00 0.00 86 1012.1
20260904133006 71 264 5.0 7.0 0.00 0.00 0.00 87 1012.1
20260904131006 70 270 7.0 9.0 0.00 0.00 0.00 87 1012.1
20260904130506 70 265 6.0 9.0 0.00 0.00 0.00 87 1012.1
20260904130006 69 286 5.0 7.0 0.00 0.00 0.00 88 1012.6
20260904125505 69 301 6.0 7.0 0.00 0.00 0.00 88 1012.1
20260904125005 69 281 5.0 7.0 0.00 0.00 0.00 89 1012.1
20260904124506 69 275 5.0 7.0 0.00 0.00 0.00 89 1012.1
20260904124007 69 271 5.0 7.0 0.00 0.00 0.00 89 1012.1
20260904123006 68 253 5.0 7.0 0.00 0.00 0.00 89 1012.1
20260904122506 68 252 5.0 9.0 0.00 0.00 0.00 89 1012.1
20260904122006 68 257 7.0 9.0 0.00 0.00 0.00 89 1012.1
20260904121505 67 246 5.0 7.0 0.00 0.00 0.00 89 1012.1
20260904121006 68 250 5.0 7.0 0.00 0.00 0.00 90 1012.1
20260904120507 68 241 5.0 7.0 0.00 0.00 0.00 90 1012.1
20260904120005 67 258 5.0 7.0 0.00 0.00 0.00 90 1012.1
20260904115006 67 250 5.0 7.0 0.00 0.00 0.00 91 1012.1
20260904114505 66 249 5.0 7.0 0.00 0.00 0.00 91 1012.1
20260904114005 66 260 5.0 7.0 0.00 0.00 0.00 91 1012.1
20260904113508 66 262 5.0 7.0 0.00 0.00 0.00 91 1012.1
20260904113006 66 258 7.0 7.0 0.00 0.00 0.00 91 1012.1
20260904112506 66 250 5.0 7.0 0.00 0.00 0.00 91 1012.6
20260904111506 66 259 5.0 7.0 0.00 0.00 0.00 91 1012.1
20260904110506 66 258 6.0 7.0 0.00 0.00 0.00 91 1012.1
20260904105505 65 255 7.0 7.0 0.00 0.00 0.00 90 1012.1
20260904105006 66 271 7.0 7.0 0.00 0.00 0.00 89 1012.1
20260904104506 66 266 7.0 7.0 0.00 0.00 0.00 89 1012.1
20260904103505 66 268 7.0 7.0 0.00 0.00 0.00 89 1012.1
20260904103006 66 266 7.0 7.0 0.00 0.00 0.00 89 1012.1
20260904102505 66 264 7.0 7.0 0.00 0.00 0.00 88 1012.1
20260904102006 66 260 6.0 7.0 0.00 0.00 0.00 88 1012.1
20260904101505 66 253 5.0 7.0 0.00 0.00 0.00 88 1012.1
20260904101006 66 267 5.0 5.0 0.00 0.00 0.00 87 1012.1
20260904100506 67 268 5.0 5.0 0.00 0.00 0.00 87 1012.1
20260904100005 67 255 5.0 7.0 0.00 0.00 0.00 87 1012.1
20260904095506 67 272 5.0 7.0 0.00 0.00 0.00 87 1012.1
20260904095006 67 262 5.0 7.0 0.00 0.00 0.00 87 1011.8
20260904094005 67 262 7.0 7.0 0.00 0.00 0.00 86 1012.1
20260904093507 67 256 7.0 7.0 0.00 0.00 0.00 86 1011.8
20260904093008 68 263 5.0 7.0 0.00 0.00 0.00 85 1012.1
20260904092508 68 263 5.0 7.0 0.00 0.00 0.00 85 1012.1
20260904092008 68 270 5.0 7.0 0.00 0.00 0.00 85 1011.1
20260904091507 68 270 5.0 7.0 0.00 0.00 0.00 85 1011.5
20260904091008 68 259 5.0 7.0 0.00 0.00 0.00 85 1011.1
20260904090508 68 280 5.0 7.0 0.00 0.00 0.00 84 1011.1
20260904085507 68 262 5.0 7.0 0.00 0.00 0.00 84 1011.1
20260904085008 68 255 7.0 7.0 0.00 0.00 0.00 83 1010.5
20260904084508 69 256 5.0 7.0 0.00 0.00 0.00 83 1011.0
20260904084008 69 265 5.0 7.0 0.00 0.00 0.00 83 1010.6
20260904083508 69 284 5.0 7.0 0.00 0.00 0.00 82 1010.5
20260904083007 69 283 5.0 7.0 0.00 0.00 0.00 82 1010.1
20260904082507 69 267 7.0 7.0 0.00 0.00 0.00 82 1010.1
20260904082008 69 262 7.0 7.0 0.00 0.00 0.00 82 1010.1
20260904081508 70 277 5.0 7.0 0.00 0.00 0.00 82 1010.1
20260904081007 70 276 5.0 7.0 0.00 0.00 0.00 81 1010.1
20260904080508 70 287 5.0 7.0 0.00 0.00 0.00 81 1010.1
20260904080007 70 278 5.0 7.0 0.00 0.00 0.00 81 1010.1
20260904075507 70 284 7.0 9.0 0.00 0.00 0.00 81 1010.1
20260904075007 70 274 7.0 9.0 0.00 0.00 0.00 81 1010.1
20260904074507 70 280 7.0 9.0 0.00 0.00 0.00 80 1010.1
20260904074008 71 266 5.0 9.0 0.00 0.00 0.00 80 1010.1
20260904073508 71 271 5.0 7.0 0.00 0.00 0.00 81 1010.1
20260904073008 71 276 5.0 7.0 0.00 0.00 0.00 80 1010.1
20260904072507 71 280 5.0 9.0 0.00 0.00 0.00 80 1010.1
20260904072008 71 290 5.0 9.0 0.00 0.00 0.00 81 1010.1
20260904071507 71 283 5.0 9.0 0.00 0.00 0.00 83 1010.1
20260904071008 70 287 7.0 9.0 0.00 0.00 0.00 83 1010.1
20260904070508 70 290 5.0 7.0 0.00 0.00 0.00 83 1010.1
20260904070007 70 282 5.0 7.0 0.00 0.00 0.00 83 1010.1
20260904065007 70 274 5.0 7.0 0.00 0.00 0.00 84 1010.1
20260904064507 70 274 5.0 7.0 0.00 0.00 0.00 83 1010.1
20260904064007 70 264 7.0 7.0 0.00 0.00 0.00 83 1010.1
20260904063507 70 271 6.0 7.0 0.00 0.00 0.00 83 1010.1
20260904063007 71 270 5.0 7.0 0.00 0.00 0.00 83 1010.1
20260904062007 71 293 5.0 7.0 0.00 0.00 0.00 83 1010.1
20260904061507 71 288 5.0 7.0 0.00 0.00 0.00 83 1010.1
20260904061008 71 272 5.0 7.0 0.00 0.00 0.00 83 1010.1
20260904060007 71 267 5.0 7.0 0.00 0.00 0.00 83 1010.1
20260904055507 71 259 5.0 7.0 0.00 0.00 0.00 83 1010.1
20260904055008 71 262 5.0 7.0 0.00 0.00 0.00 83 1010.1
20260904054507 71 279 5.0 7.0 0.00 0.00 0.00 83 1010.1
20260904054007 71 279 5.0 7.0 0.00 0.00 0.00 83 1010.1
20260904053507 71 276 5.0 7.0 0.00 0.00 0.00 83 1010.1
20260904053007 71 288 5.0 7.0 0.00 0.00 0.00 84 1010.1
20260904052007 71 270 5.0 7.0 0.00 0.00 0.00 85 1010.1
20260904051507 71 269 5.0 7.0 0.00 0.00 0.00 86 1010.1
20260904051007 71 275 7.0 9.0 0.00 0.00 0.00 87 1010.5
20260904050008 71 276 5.0 9.0 0.00 0.00 0.00 89 1010.1
20260904045509 71 273 5.0 7.0 0.00 0.00 0.00 89 1010.1
20260904045008 71 264 5.0 7.0 0.00 0.00 0.00 89 1010.2
20260904044507 71 262 5.0 7.0 0.00 0.00 0.00 88 1010.1
20260904044007 71 258 7.0 7.0 0.00 0.00 0.00 88 1010.1
20260904043008 71 271 5.0 7.0 0.00 0.00 0.00 87 1010.1
20260904042507 71 260 5.0 7.0 0.00 0.00 0.00 87 1010.1
20260904041508 71 256 5.0 5.0 0.00 0.00 0.00 86 1010.1
20260904041008 72 259 5.0 5.0 0.00 0.00 0.00 86 1010.1
20260904040508 72 271 5.0 7.0 0.00 0.00 0.00 87 1010.1
20260904040007 72 271 5.0 7.0 0.00 0.00 0.00 88 1010.1
20260904035007 71 264 5.0 5.0 0.00 0.00 0.00 89 1010.1
20260904034506 71 256 5.0 5.0 0.00 0.00 0.00 89 1010.1
20260904032507 71 266 5.0 5.0 0.00 0.00 0.00 87 1010.1
20260904032007 71 267 5.0 5.0 0.00 0.00 0.00 87 1010.1
20260904031507 72 245 5.0 5.0 0.00 0.00 0.00 86 1010.1
20260904031007 72 241 5.0 5.0 0.00 0.00 0.00 85 1010.1
20260904030007 73 263 2.0 5.0 0.00 0.00 0.00 84 1010.1
20260904025507 73 272 5.0 5.0 0.00 0.00 0.00 84 1010.1
20260904025007 73 267 2.0 5.0 0.00 0.00 0.00 83 1010.1
20260904024506 73 226 2.0 5.0 0.00 0.00 0.00 83 1010.1
20260904024007 73 233 5.0 5.0 0.00 0.00 0.00 84 1010.1
20260904023507 73 240 5.0 5.0 0.00 0.00 0.00 84 1010.1
20260904023007 74 235 2.0 5.0 0.00 0.00 0.00 83 1010.1
20260904022507 73 265 2.0 5.0 0.00 0.00 0.00 84 1010.1
20260904022007 73 273 2.0 5.0 0.00 0.00 0.00 85 1010.1
20260904021507 73 276 2.0 5.0 0.00 0.00 0.00 84 1010.1
20260904021007 74 272 4.0 5.0 0.00 0.00 0.00 83 1010.1
20260904020007 75 267 0.0 5.0 0.00 0.00 0.00 81 1010.1
20260904015007 75 1 0.0 2.0 0.00 0.00 0.00 81 1010.1
20260904014507 75 5 0.0 2.0 0.00 0.00 0.00 80 1010.1
20260904014007 75 332 0.0 2.0 0.00 0.00 0.00 80 1010.1
20260904013507 75 13 0.0 5.0 0.00 0.00 0.00 80 1010.1
20260904013007 75 312 1.0 5.0 0.00 0.00 0.00 79 1010.1
20260904012507 75 16 2.0 5.0 0.00 0.00 0.00 80 1010.1
20260904012007 75 309 0.0 5.0 0.00 0.00 0.00 79 1010.1
20260904011007 76 308 0.0 5.0 0.00 0.00 0.00 80 1010.1
20260904010507 76 332 0.0 5.0 0.00 0.00 0.00 81 1010.1
20260904010007 76 319 0.0 2.0 0.00 0.00 0.00 81 1010.1
20260904005506 76 329 0.0 5.0 0.00 0.00 0.00 82 1010.1
20260904005007 76 325 2.0 5.0 0.00 0.00 0.00 83 1010.1
20260904004507 76 278 2.0 5.0 0.00 0.00 0.00 83 1010.1
20260904004007 76 279 0.0 5.0 0.00 0.00 0.00 84 1010.1
20260904003507 76 295 0.0 2.0 0.00 0.00 0.00 86 1010.1
20260904002007 75 350 2.0 9.0 0.00 0.00 0.00 87 1009.8
20260904001007 75 3 0.0 5.0 0.00 0.00 0.00 87 1009.1
20260904000507 76 288 0.0 2.0 0.00 0.00 0.00 87 1009.1
20260904000006 75 213 0.0 2.0 0.00 0.00 0.00 87 1009.1
20260903235507 75 194 0.0 5.0 0.00 0.00 0.00 87 1009.1
20260903235007 75 194 0.0 5.0 0.00 0.00 0.00 87 1009.1
20260903234506 75 193 0.0 5.0 0.00 0.00 0.00 87 1009.1
20260903234007 75 184 1.0 2.0 0.00 0.00 0.00 86 1009.1
20260903233507 75 203 2.0 2.0 0.00 0.00 0.00 86 1009.1
20260903233007 75 194 0.0 2.0 0.00 0.00 0.00 86 1009.1
20260903232506 75 153 0.0 5.0 0.00 0.00 0.00 86 1009.1
20260903232007 75 188 2.0 5.0 0.00 0.00 0.00 85 1009.1
20260903231506 75 196 2.0 5.0 0.00 0.00 0.00 85 1009.4
20260903231007 75 185 0.0 5.0 0.00 0.00 0.00 85 1009.1
20260903230507 75 184 2.0 2.0 0.00 0.00 0.00 85 1009.1
20260903230007 75 194 0.0 5.0 0.00 0.00 0.00 85 1009.1
20260903225506 75 199 0.0 5.0 0.00 0.00 0.00 85 1009.1
20260903225007 75 169 0.0 0.0 0.00 0.00 0.00 85 1009.1
20260903224506 75 145 0.0 0.0 0.00 0.00 0.00 85 1009.1
20260903224007 75 105 0.0 0.0 0.00 0.00 0.00 85 1009.1
20260903223507 75 116 0.0 0.0 0.00 0.00 0.00 85 1009.1
20260903223007 75 114 0.0 0.0 0.00 0.00 0.00 84 1009.1
20260903222507 76 105 0.0 0.0 0.00 0.00 0.00 83 1009.1
20260903222007 76 87 0.0 5.0 0.00 0.00 0.00 83 1009.1
20260903221507 75 94 0.0 5.0 0.00 0.00 0.00 83 1009.1
20260903221007 75 78 2.0 5.0 0.00 0.00 0.00 83 1008.6
20260903220507 76 102 0.0 2.0 0.00 0.00 0.00 83 1008.1
20260903220006 76 85 0.0 2.0 0.00 0.00 0.00 82 1008.1
20260903215507 77 58 0.0 0.0 0.00 0.00 0.00 81 1008.1
20260903214508 77 40 0.0 0.0 0.00 0.00 0.00 81 1008.1
20260903214007 77 45 0.0 2.0 0.00 0.00 0.00 82 1008.5
20260903213509 77 39 0.0 2.0 0.00 0.00 0.00 81 1009.1
20260903211506 78 51 0.0 0.0 0.00 0.00 0.00 81 1009.1
20260903211008 78 48 0.0 0.0 0.00 0.00 0.00 82 1009.1